[[{"header":{"parameterUnit":"m.s-1","parameterCategory":1,"la1":30.2992,"la2":30.254,"lo1":-89.0895,"lo2":-89.0443,"dy":0.0025,"dx":0.0025,"nx":19,"ny":19,"refTime":"2026-04-28T03:00:00:Z","depth":0,"parameterNumber":2,"parameterNumberName":"U-component_of_WINDS"},"data":[0,0,0,-4.3203,-4.3206,-4.3346,-4.3346,-4.3527,-4.3529,0,0,0,0,0,0,0,0,0,0,0,-4.3163,-4.3165,-4.3203,-4.3206,-4.3345,-4.3346,-4.3527,-4.3529,0,0,0,0,0,0,0,0,0,0,0,-4.3163,-4.3164,-4.3166,-4.3207,-4.3345,-4.3346,-4.3527,-4.342,0,0,0,0,0,0,0,0,0,0,-4.3284,-4.325,-4.3164,-4.3166,-4.3207,-4.3345,-4.3346,-4.3415,-4.3427,-4.3466,0,-4.3501,0,-4.3518,-4.3541,-4.3542,0,0,0,-4.3204,-4.324,-4.3276,-4.3166,-4.3209,-4.3345,-4.3282,-4.3422,-4.3435,-4.3481,-4.3503,-4.351,-4.3521,-4.3543,-4.3544,-4.3773,-4.3774,0,0,-4.3197,-4.3189,-4.3267,-4.3285,-4.3264,-4.3278,-4.3286,-4.343,-4.3453,-4.3504,-4.3514,-4.3524,-4.3544,-4.3545,-4.3772,-4.3773,0,0,0,-4.3176,-4.3184,-4.3216,-4.3277,-4.3302,-4.3282,-4.3292,-4.3447,-4.3458,-4.3516,-4.3526,-4.3545,-4.3547,-4.3771,-4.3772,-4.3821,0,0,0,-4.3171,-4.3172,-4.3213,-4.321,-4.33,-4.3376,-4.3306,-4.3448,-4.3464,-4.3525,-4.3545,-4.3549,-4.3769,-4.3772,-4.3817,-4.3844,0,0,0,-4.3154,-4.317,-4.3191,-4.3209,-4.3269,-4.3374,-4.3394,-4.3452,-4.3471,-4.3542,-4.355,-4.3769,-4.3771,-4.3813,-4.3838,-4.3901,0,0,0,-4.3133,-4.3232,-4.3191,-4.3306,-4.3268,-4.3404,-4.3393,-4.3494,-4.3562,-4.3546,-4.377,-4.3772,-4.3812,-4.3835,-4.3898,-4.3952,-4.3974,0,0,-4.3253,-4.3246,-4.3314,-4.3282,-4.3423,-4.3383,-4.3532,-4.36,-4.3614,-4.3719,-4.3725,-4.3818,-4.3838,-4.3901,-4.4106,-4.4124,0,0,0,-4.335,-4.3399,-4.3438,-4.3502,-4.3558,-4.3607,-4.3654,-4.368,-4.377,-4.3667,-4.386,-4.3872,-4.3909,-4.3935,-4.395,-4.3981,-4.3785,-4.3784,-4.3784,-4.3508,-4.3521,-4.3635,-4.3665,-4.3728,-4.3777,-4.3828,-4.3871,-4.3865,-4.3911,-4.3941,-4.4065,-4.4095,-4.4106,-4.4139,-4.3973,-4.3973,-4.3973,-4.3974,-4.3685,-4.3755,-4.3747,-4.3854,-4.3868,-4.3958,-4.4009,-4.4003,-4.4088,-4.4043,-4.4076,-4.4022,-4.4125,-4.4155,-4.3977,-4.3977,-4.3976,-4.3976,-4.3976,-4.3788,-4.3823,-4.3854,-4.3949,-4.4021,-4.4049,-4.4132,-4.4142,-4.4152,-4.4185,-4.4217,-4.4217,-4.4215,-4.4201,-4.4201,-4.4201,-4.4202,-4.4202,-4.4202,-4.3881,-4.3914,-4.3983,-4.4052,-4.4095,-4.4153,-4.4204,-4.4247,-4.4297,-4.4297,-4.4297,-4.4286,-4.4134,-4.4094,-4.4209,-4.4208,-4.4207,-4.4206,-4.4206,-4.4051,-4.4014,-4.412,-4.4163,-4.4246,-4.4316,-4.4329,-4.4415,-4.4452,-4.4493,-4.4477,-4.4363,-4.4355,-4.4344,-4.431,-4.4474,-4.4474,-4.4474,-4.4474,-4.4135,-4.4134,-4.4245,-4.4313,-4.4382,-4.4405,-4.4524,-4.4566,-4.4603,-4.4627,-4.4605,-4.4563,-4.4551,-4.4551,-4.4534,-4.4503,-4.4713,-4.4713,-4.4713,-4.424,-4.4246,-4.4344,-4.4381,-4.4447,-4.4503,-4.4615,-4.4694,-4.4729,-4.4723,-4.4645,-4.4635,-4.4567,-4.4545,-4.4533,-4.4507,-4.4451,0,0]},{"header":{"parameterUnit":"m.s-1","parameterCategory":1,"la1":30.2992,"la2":30.254,"lo1":-89.0895,"lo2":-89.0443,"dy":0.0025,"dx":0.0025,"nx":19,"ny":19,"refTime":"2026-04-28T03:00:00:Z","depth":0,"parameterNumber":3,"parameterNumberName":"V-component_of_WINDS"},"data":[0,0,0,4.1478,4.1479,4.1521,4.1521,4.1573,4.1573,0,0,0,0,0,0,0,0,0,0,0,4.1466,4.1466,4.1478,4.1479,4.1521,4.1521,4.1573,4.1573,0,0,0,0,0,0,0,0,0,0,0,4.1465,4.1466,4.1466,4.1479,4.1521,4.1521,4.1573,4.1541,0,0,0,0,0,0,0,0,0,0,4.1501,4.1489,4.1466,4.1466,4.148,4.1521,4.1521,4.154,4.1543,4.1554,0,4.1563,0,4.1569,4.1577,4.1577,0,0,0,4.1479,4.1487,4.1498,4.1466,4.148,4.152,4.1502,4.1542,4.1546,4.1558,4.1564,4.1566,4.157,4.1577,4.1577,4.1639,4.1639,0,0,4.1477,4.1473,4.1496,4.1501,4.1495,4.1501,4.1503,4.1544,4.155,4.1564,4.1567,4.1571,4.1577,4.1578,4.1639,4.1639,0,0,0,4.147,4.1471,4.1482,4.1499,4.1506,4.1502,4.1505,4.1548,4.1552,4.1568,4.1571,4.1578,4.1578,4.1638,4.1639,4.165,0,0,0,4.1469,4.1467,4.1481,4.1478,4.1506,4.1528,4.1508,4.1549,4.1554,4.1571,4.1578,4.1579,4.1638,4.1639,4.1649,4.1655,0,0,0,4.1463,4.1467,4.1473,4.1478,4.1496,4.1527,4.1533,4.155,4.1556,4.1577,4.1579,4.1638,4.1639,4.1648,4.1653,4.167,0,0,0,4.1455,4.148,4.1473,4.1503,4.1496,4.1534,4.1533,4.1562,4.1581,4.1578,4.1638,4.1639,4.1648,4.1652,4.1669,4.1683,4.1689,0,0,4.1484,4.1484,4.1502,4.1496,4.1535,4.1528,4.1568,4.1589,4.1594,4.1624,4.1625,4.1649,4.1653,4.167,4.1723,4.1727,0,0,0,4.151,4.1522,4.1534,4.1552,4.157,4.1586,4.1601,4.161,4.1635,4.1609,4.166,4.1663,4.1673,4.1679,4.1683,4.1692,4.1642,4.1642,4.1642,4.1543,4.1551,4.1581,4.1594,4.1613,4.163,4.1645,4.1659,4.1659,4.1671,4.168,4.1711,4.1719,4.1722,4.1731,4.1688,4.1688,4.1688,4.1688,4.1587,4.1606,4.1609,4.1639,4.1647,4.1673,4.1691,4.1691,4.1716,4.1705,4.1714,4.17,4.1726,4.1734,4.1689,4.1689,4.1689,4.1689,4.1689,4.1609,4.1619,4.1631,4.166,4.1682,4.1694,4.1719,4.1725,4.173,4.1739,4.1749,4.1749,4.1749,4.1744,4.1744,4.1744,4.1744,4.1744,4.1744,4.1627,4.1639,4.166,4.1683,4.1697,4.1716,4.1735,4.1749,4.1765,4.1767,4.1768,4.1767,4.1728,4.1717,4.1746,4.1746,4.1745,4.1745,4.1745,4.1666,4.1659,4.169,4.1705,4.1733,4.1755,4.1764,4.1792,4.1804,4.1816,4.1814,4.1785,4.1784,4.1781,4.1772,4.1813,4.1813,4.1813,4.1813,4.1685,4.1686,4.172,4.1743,4.1766,4.1777,4.1813,4.1829,4.1844,4.1852,4.1847,4.1837,4.1834,4.1835,4.183,4.1822,4.1875,4.1875,4.1875,4.1709,4.1713,4.1742,4.1759,4.1782,4.1802,4.1836,4.1861,4.1877,4.1878,4.1859,4.1856,4.1839,4.1833,4.1832,4.1825,4.1811,0,0]}]]